Notice: Undefined index: language in /storage/ssd5/933/2892933/public_html/vam/index.php on line 25
JetGo Aerolínea Virtual

www.000webhost.com
 METAR AND TAF INFORMATION
METAR FOR SKAR
ADDS - METARS form results

(1353 UTC 19 August 2019)
Data provider http://aviationweather.gov/metar/data/
 
METAR text: SKAR 191300Z 00000KT 8000 VCFG SCT020 BKN090 19/18 A3006
Conditions at: SKAR (ARMENIA/EL EDEN , CO) observed 1300 UTC 19 August 2019
Temperature: 19.0°C (66°F)
Dewpoint: 18.0°C (64°F) [RH = 94%]
Pressure (altimeter): 30.06 inches Hg (1018.0 mb)
Winds: calm
Visibility: 5 miles ( 8 km)
Ceiling: 9000 feet AGL
Clouds: scattered clouds at 2000 feet AGL
broken clouds at 9000 feet AGL
Weather: VCFG  (fog in vicinity)

 AIRPORT MAP

 RUNWAY INFORMATION
Runway 02 Runway length 7045 ft Runway width 118 ft
Runway elevation 3968 ft Runway displaced threshold 0 ft Runway heading 13
Runway 20 Runway length 7045 ft Runway width 118 ft
Runway elevation 3979 ft Runway displaced threshold 0 ft Runway heading 193

 AIRPORT FREQUENCIES
Type APP Name PEREIRA AP Frequency 119.9 MHZ
Type RDO Name ARMENIA RD Frequency 348.8 MHZ
Type TWR Name TWR Frequency 118.5 MHZ

 AIRPORT NEAR NAVIGATION AIDS
Type NDB Name Armenia Frequency 315 KHZ



Powered by VAM for JetGo Virtual Airlines